Regional Weather Roundup
Issued by NWS

Home | Current Version | Previous Version | Text Only | Print | Product List | Glossary On
Versions: 1 2 3 4 5 6 7 8 9 10 11 12 13 14 15 16 17 18 19 20 21 22 23 24 25 26 27
000
ASUS42 KKEY 281310
RWRKEY

FLORIDA REGIONAL WEATHER ROUNDUP FOR THE FLORIDA KEYS
NATIONAL WEATHER SERVICE KEY WEST FLORIDA
900 AM EDT FRI JUL 28 2017

...SOUTH FLORIDA AND THE KEYS...

CITY           SKY/WX    TMP DP  RH WIND       PRES   REMARKS
FORT MYERS     MOSUNNY   84  80  88 SE5       29.98R HX  97
SW REGIONAL AP CLOUDY    82  77  84 SE3       29.99R HX  90
NAPLES         MOSUNNY   85  78  80 SE5       29.98R HX  96
MIAMI          MOSUNNY   87  77  72 CALM      29.99R HX  99
WEST KENDALL   SUNNY     87  76  69 CALM      29.99R HX  97
HOMESTEAD      SUNNY     85  79  84 CALM      29.98R HX  98
MARATHON       SUNNY     87  79  76 SE6       29.97S HX 101
BOCA CHICA NAS MOSUNNY   87  79  76 SE8       29.98R HX 101
KEY WEST INTL  PTSUNNY   86  78  77 S6        29.98R HX  98

...INTERNATIONAL WEATHER...

CITY           SKY/WX    TMP DP  RH WIND       PRES   REMARKS
NASSAU BAHAMAS PTSUNNY   88  77  70 E5        30.00R HX 100
CANCUN MEXICO  SUNNY     79  79 100 NW2       29.95R
COZUMEL MEXICO MOSUNNY   82  81  94 CALM      29.93R HX  95

ADJACENT COASTAL WATERS...

STATION/POSITION TIME  SKY/WX   TEMP    WIND        PRES    WAVE
                                AIR SEA DIR/SP/G            HT/PER
                 (UTC)          (F)     (DEG/KT/KT) (MB)    (FT/S)
PULASKI SHOAL LI 1300            86     130/  2/  3 1015.3R
SAND KEY         1250            84                 1015.7R
LONG KEY         NOT AVBL
MOLASSES REEF    NOT AVBL
FOWEY ROCKS      1200            85 86  150/  3/  4 1015.8R
Buoy 42097       1230               88                N/A     1

$$




USA.gov is the U.S. government's official web portal to all federal, state and local government web resources and services.